星链-30611 (STARLINK-30611 )

导读 | 星芒AI

STARLINK-30611 是 SpaceX Starlink 卫星互联网项目中的一颗低轨通信卫星。它属于 Starlink 群体部署的一部分,旨在为全球用户提供高速、低延迟的互联网服务。该卫星运行在约 550 公里的近地轨道上,采用先进的推进和通信技术,支持宽带数据传输。作为 Starlink 计划的组成部分,它有助于扩大卫星网络覆盖范围,特别是在偏远和网络基础设施薄弱的地区。

基本信息
目录编号:
58108
目录名称:
STARLINK-30611
国际标识:
2023-161M
轨道中心:
EARTH
卫星名称:
星链-30611
卫星全名:
星链-30611 (STARLINK-30611 )
卫星状态:
在轨 (已飞行791 天)
发射日期:
2023-10-21 UTC
国别 :
美国 (US)
星等 :
--
轨道信息
数据来源 国际轨道数据
星历时间: 2025-12-20T02:39:16+0800
14小时前
查看轨道信息
半长轴: 6853.341km
偏心率: 0.0001361
轨道倾角: 53.158°
近地点辐角 94.890°
升交点赤经 163.941°
平近点角 265.226°
近地点: 474.271km
远地点: 476.137km
周期: 94.105分钟
每日圈数: 15.30204
详细信息
固有亮度:
5
最大亮度:
0.3
卫星平台:
Starlink v2.0 mini
覆盖范围:
全球
运营商:
太空探索技术公司
运营商所在国:
美国
制造商(研发单位):
太空探索技术公司
制造商所在国:
美国
使用方式:
暂无
卫星简介
星链(Starlink)计划是由太空探索技术公司(SpaceX)提出的一个巨型低轨卫星互联网星座项目,计划在2019年至2024年间在太空搭建由约1.2万颗卫星组成的“星链”网络,其中1584颗将部署在地球上空550千米处的近地轨道,并从2020年开始工作。该卫星仍在工作。
2D轨道图
3D轨道图
轨道高度分析图
轨道倾角分析图
轨道综合分析图
查看轨道综合分析图